Regional Weather Roundup
Issued by NWS Charleston, SC

Current Version | Previous Version | Graphics & Text | Print | Product List | Glossary On
Versions: 1 2 3 4 5 6 7 8 9 10 11 12 13 14 15 16 17 18 19 20 21 22 23 24 25 26 27 28 29 30 31 32 33 34 35 36 37 38 39 40 41 42 43 44 45 46 47 48 49 50
000
ASUS42 KCHS 290227
RWRCHS

REGIONAL WEATHER ROUNDUP
NATIONAL WEATHER SERVICE CHARLESTON SC
1000 PM EDT WED JUN 28 2017

NOTE: "FAIR" INDICATES FEW OR NO CLOUDS BELOW 12,000 FEET WITH NO
SIGNIFICANT WEATHER AND/OR OBSTRUCTIONS TO VISIBILITY.

NOT ALL STATIONS ARE QUALITY CONTROLLED. USE DATA WITH CAUTION...
ESPECIALLY DEWPOINT OBSERVATIONS.

SCZ027-030-031-034>040-042>050-290300-
...SOUTHEAST SOUTH CAROLINA...

CITY           SKY/WX    TMP DP  RH WIND       PRES   REMARKS
N CHARLESTON   PTCLDY    76  62  62 E6        30.17R
WATERFRONT PRK   N/A     81  68  64 E10       30.14R
JOHNS ISLAND   FAIR      77  63  61 E7        30.17S
PINOPOLIS        N/A    N/A N/A N/A CALM      30.10R
MONCKS CORNER  FAIR      68  63  83 CALM      30.18S
SUMMERVILLE    FAIR      70  63  78 CALM      30.18S
BEAUFORT MCAS  CLEAR     79  69  71 E9        30.16R
BEAUFORT ARPT  FAIR      77  68  73 E7        30.16R
HILTON HEAD IS PTCLDY    81  70  69 VRB7G15   30.16R
WALTERBORO     CLEAR     70  63  78 E3        30.18S
ALLENDALE      FAIR      77  64  65 SE7       30.16R

...SOUTHERN MIDLANDS AND PEE DEE...

CITY           SKY/WX    TMP DP  RH WIND       PRES   REMARKS
GEORGETOWN     FAIR      70  63  78 CALM      30.19R
KINGSTREE      FAIR      70  63  78 E3        30.18R
ORANGEBURG     PTCLDY    75  61  61 SE6       30.17R
BARNWELL       FAIR      79  68  69 CALM      30.17R
AIKEN          MOCLDY    75  63  64 E5        30.20R
MANNING        FAIR      70  63  78 SE6       30.18R
COLUMBIA       CLEAR     78  61  55 SE3       30.16R
SUMTER         CLEAR     75  61  62 CALM      30.15R
FLORENCE       CLEAR     74  61  63 S6        30.18R
MYRTLE BEACH   CLEAR     77  61  57 SE12      30.19R
N MYRTLE BEACH CLEAR     78  59  51 SE6       30.18R

$$

GAZ063-065-086>088-099>101-113>116-118-119-134>141-150-290300-
...SOUTHEAST GEORGIA...

CITY           SKY/WX    TMP DP  RH WIND       PRES   REMARKS
SAVANNAH ARPT  PTCLDY    78  69  73 E8        30.15R
HUNTER AAF     CLEAR     78  71  78 E9        30.12R
FORT STEWART   CLEAR     76  70  82 E3        30.12R
STATESBORO     CLEAR     76  69  80 CALM      30.16R
SYLVANIA       CLEAR     75  70  84 E3        30.17S
CLAXTON        FAIR      74  69  85 CALM      30.15R

...CSRA...CENTRAL AND FAR SOUTHEAST GEORGIA...

CITY           SKY/WX    TMP DP  RH WIND       PRES   REMARKS
THOMSON        PTCLDY    78  66  67 SW6       30.20R
AUGUSTA-BUSH   PTCLDY    78  67  68 SE6       30.14R
AUGUSTA-DANIEL MOCLDY    81  63  54 SE8       30.16R
SWAINSBORO     FAIR      77  68  73 SE7       30.16R
VIDALIA        PTCLDY    77  70  78 SE5       30.15R
EASTMAN        CLOUDY    80  57  45 SE6       30.15R
HAZLEHURST     FAIR      79  68  69 E3        30.13R
ALMA           CLOUDY    79  68  69 E6        30.12R
WAYCROSS       PTCLDY    80  77  89 SE7       30.12R
JESUP          FAIR      77  68  73 CALM      30.14R
BAXLEY         FAIR      77  73  88 E3        30.14R
BRUNSWICK      CLOUDY    79  73  83 E7        30.13S
SAINT SIMONS   MOCLDY    81  73  76 E15       30.12R

$$

SCZ027-028-034-036>038-045-046-048>050-GAZ119-141-290300-
...LAKE AND SUPPLEMENTAL COASTAL OBSERVATIONS...

STATION/POSITION TIME  TEMP    WIND        PRES    WAVE   SWELL
                       AIR SEA DIR/SP/G            HT/PER HT/PER/DIR
                 (UTC) (F)     (DEG/KT/KT) (MB)    (FT/S) (FT/S/D)
WINYAH BAY       0045   78     110/  8     1021.0
LAKE MURRAY      0150   81     130/  5/  8 1020.3R
ACE BASIN NERRS  0045   78      90/  2     1021.0
FORT PULASKI     0200   81 83  100/ 18/ 21 1021.1
SAPELO ISLAND    0100   80      90/  6     1020.0

$$

ANZ835-935-AMZ111-154-330-350-352-354-370-450-454-472-290300-
...C-MAN AND BUOY OBSERVATIONS...

STATION/POSITION TIME  TEMP    WIND        PRES    WAVE   SWELL
                       AIR SEA DIR/SP/G            HT/PER HT/PER/DIR
                 (UTC) (F)     (DEG/KT/KT) (MB)    (FT/S) (FT/S/D)
BUOY 41004       0210   81 81   90/ 14/ 17 1021.0
BUOY 41008       0150   81 82   80/ 17/ 21 1019.6R   4/ 6   2/ 90/11
FOLLY BEACH CMAN 0200   81     100/ 15/ 17 1022.2R
CAPERS NEARSHORE NOT AVBL
FRIPP NEARSHORE  NOT AVBL


STATION/POSITION TIME  TEMP    WIND        PRES    WAVE   SWELL
                       AIR SEA DIR/SP/G            HT/PER HT/PER/DIR
                 (UTC) (F)     (DEG/KT/KT) (MB)    (FT/S) (FT/S/D)
5E ST. MARYS GA  0200      81                N/A     3/ 5
FRYING PAN BUOY  0210   79 79   70/ 10/ 12 1021.6
BUOY 41025       0150   79 83  100/  8/ 10 1022.1R   2/ 7   2/ 40/ 7
CAPE LOOKOUT NC  0200   79     110/  9/ 10 1022.0R
BUOY 41002       0150   80 81   70/ 14/ 17 1020.2F   3/ 4   2/140/ 8
BUOY 41010       0210   81 83  100/ 10/ 14 1018.8
ST AUGUSTINE FL  0200   81 81  110/ 11/ 13 1019.6R


$$



USA.gov is the U.S. government's official web portal to all federal, state and local government web resources and services.